CZ-6A DEB

Satellite information

Favourite Embed

Satellite Type and Status

DEBRISIN ORBIT

Key statistics

Satellite CZ-6A DEB at a glance.

Uptime

1075

Days in orbit

Revolutions

≈ 14.9

Per day

Orbit

SSO

Sun Synchronous Orbit

Inclination

98.7

Latest

Satellite identification and parameters

Extended collection of information and parameters for CZ-6A DEB.

Object identification

Identified? True

Debris? True

Object name: CZ-6A DEB

International designator: 2022-151HS

Object number (NORAD): 54490

Object ID (CCSDS): 54490

Country: PEOPLES REPUBLIC OF CHINA (PRC)

Current information (Y/N): Y

RCS size: SMALL

Orbital parameters

Period: 96.34 minutes

Inclination: 98.6507 deg

SMA: 6961.407 km

Apoapsis: 616.534 km

Periapsis: 550.011 km

RAAN: 358.814 deg

Eccentricy: 0.00477797

Argument of periapsis: 259.2315 deg

Mean anomaly: 100.3522 deg

Mean motion: 14.94710815 rev/day

Mean motion (dot): 0.00088871 rev/day2

B* drag term: 0.007917555 1/REarth

Two-line elements (TLE)

Creation date: Oct. 21, 2025, 3:26 a.m.

Reference frame: TEME

Reference center: EARTH

Epoch: Oct. 20, 2025, 5:13 p.m. UTC

TLE line 0: 0 CZ-6A DEB

TLE line 1: 1 54490U 22151HS 25293.71737713 .00088871 00000-0 79176-2 0 9994

TLE line 2: 2 54490 98.6507 358.8140 0047780 259.2315 100.3522 14.94710815155746

Live tracking on map

Real-time ground track for satellite CZ-6A DEB.

In-orbit conjunctions

A list of the most updated potential collisions computed for object CZ-6A DEB.

Target Orbit TCA Probability of collision Miss distance Type
IRIDIUM 73 LEO 2024-11-01 00:36:30 0.0001373345 384.0 (m) PAYLOAD
SL-8 R/B LEO 2024-08-06 05:56:11 0.0001169232 270.0 (m) ROCKET BODY

Associated space launch

Chinese satellite reported for atmospheric/ocean/environmental/spatial parameter research purposes, details TBD.

CZ-6A DEB was lifted into orbit during the mission ‘Long March 6A | Yunhai 3’, on board a Long March 6A space rocket.

The launch took place on Nov. 11, 2022, 10:52 p.m. from Launch Complex 9A.

For more information about the launch, click the button.

Launch to space Long March 6A | Yunhai 3
Long March 6A | Yunhai 3

Agency: N/A

Status: Launch Successful

Launch date: Nov. 11, 2022, 10:52 p.m. UTC

Rocket: Long March 6A

Launch pad: Launch Complex 9A

Location: Taiyuan Satellite Launch Center, People's Republic of China

...

Latest news about this satellite

There are no fresh news available about this satellite. Check back as we update our databases every day.


Newsletter sign-up

Weekly statistics, charts and insights to help you stay on top of the space industry.